User: anonymous   Login
Location: Mesa
(33.4220°N, 111.8220°W)
Time: 21:43:24
(UTC-07:00)
Language:

Hubble Space Telescope - Orbit

View from above orbital plane
View from above orbital plane
View from above satellite
View from above satellite

Ground track
Ground track

The orbit data is extracted from the following two-line orbital elements,

1 20580U 90037B   19340.69061701  .00000329  00000-0  90345-5 0  9991
2 20580  28.4680 161.1499 0002722 162.7031 304.0320 15.09308498426741
Epoch (UTC): 06 December 2019 16:34:29
Eccentricity: 0.0002722
inclination: 28.4680°
perigee height: 536 km
apogee height: 540 km
right ascension of ascending node: 161.1499°
argument of perigee: 162.7031°
revolutions per day: 15.09308498
mean anomaly at epoch: 304.0320°
orbit number at epoch: 42674

The dashed part of the orbit path shows where the satellite is in the earth's shadow,  

DLR